Retour au catalogue

DELTA 1 DEB

ActifSSO
NORAD 42641·DEBRIS·🇺🇸 United States

Lancé Jun 12, 1975 depuis Vandenberg Space Force Base

Loading…

Prochains Passages (prochaines 24 heures)

TLE

FraisSource: Space-Track

Époque: Sep 14, 2026, 11:17 UTC

1 42641U 75052MA  26257.47064966  .00000140  00000-0  35486-3 0  9994
2 42641  99.7979 340.3764 0059973 254.5747 168.6034 13.35694667624250

Suivez DELTA 1 DEB en temps réel avec AllMySat

Download on the App Store